Regional Weather Roundup
Issued by NWS

Home | Current Version | Previous Version | Graphics & Text | Print | Product List | Glossary On
Versions: 1 2 3 4 5 6 7 8 9 10 11 12 13 14 15 16 17 18 19 20 21 22 23 24 25 26 27 28 29 30 31 32 33 34 35 36 37 38 39 40 41 42 43 44 45 46 47 48 49 50
000
ASUS43 KLOT 210306
RWRIL

ILLINOIS REGIONAL WEATHER ROUNDUP
NATIONAL WEATHER SERVICE CHICAGO/ROMEOVILLE IL
1000 PM CDT SUN APR 20 2014

NOTE: "FAIR" INDICATES FEW OR NO CLOUDS BELOW 12,000 FEET WITH NO
SIGNIFICANT WEATHER AND/OR OBSTRUCTIONS TO VISIBILITY.

* THESE STATIONS ARE NOT UNDER NWS QUALITY CONTROL. THEY ALSO MAY NOT
  REPORT WEATHER SUCH AS PRECIPITATION OR FOG.

ILZ001-002-007-009-015-016-024-210400-
NORTHWEST ILLINOIS

CITY           SKY/WX    TMP DP  RH WIND       PRES   REMARKS
MOLINE         CLOUDY    69  45  41 S8        29.98S
STERLING*      MOCLDY    66  43  42 S3        30.00S
SAVANNA*       MOCLDY    66  46  47 S7        29.98S
$$

ILZ003-004-008-010-011-017-018-210400-
NORTH CENTRAL ILLINOIS

CITY           SKY/WX    TMP DP  RH WIND       PRES   REMARKS
ROCKFORD       MOCLDY    66  41  40 S12       30.00F
FREEPORT*      PTCLDY    64  46  51 S9        30.01F
ROCHELLE*      PTCLDY    61  42  50 SE10      30.01F
DE KALB*       PTCLDY    61  41  48 S10       30.03F
PERU*          MOCLDY    65  43  44 S10G17    30.03S
$$

ILZ005-006-012>014-019>023-210400-
NORTHEAST ILLINOIS

CITY           SKY/WX    TMP DP  RH WIND       PRES   REMARKS
CHICAGO-OHARE  PTCLDY    64  40  41 S12       30.03F
CHICAGO-MIDWAY PTCLDY    70  39  32 SE9       30.04F
AURORA         PTCLDY    59  42  53 SE7       30.03F
LANSING*       PTCLDY    63  37  37 SE7       30.06S
JOLIET*        PTCLDY    65  40  39 S6        30.05S
WAUKEGAN       CLEAR     58  39  49 S6        30.01F
DUPAGE AIRPORT PTCLDY    61  41  47 S6        30.02F
KANKAKEE*      PTCLDY    63  43  48 S10       30.07S
WHEELING       PTCLDY    61  42  49 S7        30.03F
MORRIS*        PTCLDY    64  36  35 S7        30.04S
ROMEOVILLE*    CLEAR     62  40  45 S9        30.04S
NORTHERLY ISL    N/A     52  44  74 SE5         N/A
$$

LMZ740>746-210400-
SOUTHERN LAKE MICHIGAN

STATION/POSITION SKY/WX   TEMP    WIND        PRES    VSBY  WAVE
                          AIR SEA DIR/SP/G                  HT/PER
                          (F)     (DEG/KT/KT) (MB)    (MI)  (FT/S)
WAUKEGAN HARBOR            51     190/ 10/ 13 1017.6F
HARRISON CRIB              54     170/ 12/ 14   N/A
BURNHAM HARBOR             53     150/  4/  5   N/A
CALUMET HARBOR             69     150/  9/ 13 1018.2F
MICHIGAN CITY              68     140/  8/ 10   N/A
$$

ILZ025>027-034>036-040-047-049-050-058-095>099-210400-
WEST-CENTRAL ILLINOIS

CITY           SKY/WX    TMP DP  RH WIND       PRES   REMARKS
QUINCY         PTCLDY    65  46  50 SE6       30.02R
GALESBURG*     MOCLDY    62  47  59 S3        30.01S
MACOMB*        PTCLDY    64  43  46 S7        30.04R
JACKSONVILLE*  MOCLDY    67  44  43 SE10      30.05S
PITTSFIELD*    PTCLDY    68  44  41 SE7       30.04S
$$

ILZ028>032-037-038-041>044-048-051>054-059>061-210400-
CENTRAL ILLINOIS

CITY           SKY/WX    TMP DP  RH WIND       PRES   REMARKS
PONTIAC        PTCLDY    66  43  42 S10       30.05S
BLOOMINGTON    MOCLDY    60  41  49 S12       30.07F
DECATUR        PTCLDY    58  43  57 SE3       30.08S
PEORIA         MOCLDY    68  42  38 S12       30.04R
LACON*         CLOUDY    67  43  42 S8        30.02S
LINCOLN*       PTCLDY    64  42  46 S7        30.05S
SPRINGFIELD    PTCLDY    68  42  38 S10       30.05F
TAYLORVILLE    PTCLDY    63  43  48 SE7       30.07S
$$

ILZ033-039-045-046-055>057-062-063-210400-
EAST-CENTRAL ILLINOIS

CITY           SKY/WX    TMP DP  RH WIND       PRES   REMARKS
CHAMPAIGN      MOCLDY    60  43  53 SE8       30.08F
RANTOUL*       PTCLDY    61  42  50 CALM      30.09F
MATTOON        PTCLDY    64  43  46 SE5       30.08F
PARIS*         PTCLDY    55  45  68 SE3       30.10F
$$

ILZ079-100>102-210400-
SOUTHWEST ILLINOIS

CITY           SKY/WX    TMP DP  RH WIND       PRES   REMARKS
ALTON          CLEAR     63  45  51 SE9       30.06
BELLEVILLE     MOCLDY    64  47  53 SE7       30.06R
CAHOKIA*       MOCLDY    68  46  45 SE8       30.06R
SPARTA*        MOCLDY    66  45  45 SE6       30.09R
$$

ILZ064>066-069>071-074>076-080>082-084>086-088>090-092>094-210400-
SOUTH-CENTRAL ILLINOIS

CITY           SKY/WX    TMP DP  RH WIND       PRES   REMARKS
CARBONDALE     PTCLDY    63  46  54 SE5       30.09R
CAIRO*         PTCLDY    64  51  60 CALM      30.10S
MARION         PTCLDY    66  43  42 CALM      30.10S
MT. VERNON     CLEAR     61  41  48 CALM      30.10S
CENTRALIA*       N/A     61  46  57 CALM      30.09R
SALEM*         CLEAR     67  46  45 SE5       30.09S
METROPOLIS*    PTCLDY    61  47  61 CALM      30.10S
$$

ILZ067-068-072-073-078-083-087-091-210400-
SOUTHEAST ILLINOIS

CITY           SKY/WX    TMP DP  RH WIND       PRES   REMARKS
FAIRFIELD*     PTCLDY    64  48  55 CALM      30.10S
HARRISBURG*    PTCLDY    60  50  69 CALM      30.12R
ROBINSON*      CLEAR     58  50  75 CALM      30.11S
CARMI*         PTCLDY    60  52  73 S3        30.10S
$$

ABBREVIATIONS USED IN REMARKS
   TC - TEMPERATURE IN CELSIUS
  WCI - WIND CHILL INDEX
   HX - HEAT INDEX
  VSB - VISIBILITY
$$




USA.gov is the U.S. government's official web portal to all federal, state and local government web resources and services.